CW4480 Weather Reports


Display with metric or nautical units.
time (UTC)temp
F
wind
direction
speed
MPH
gust
MPH
rain 1hr
in
rain 24hr
in
rain mn
in
humidity
%
barometer
mb
20260510200035 68 341 6.0 11.0 0.00 0.13 0.00 35 1017.0
20260510193029 68 328 1.0 5.0 0.00 0.13 0.00 34 1017.0
20260510190039 68 340 3.0 12.0 0.00 0.13 0.00 40 1016.9
20260510183032 66 344 6.0 12.0 0.00 0.13 0.00 39 1016.7
20260510180042 63 338 4.0 7.0 0.00 0.13 0.00 40 1017.0
20260510173035 62 332 3.0 7.0 0.00 0.13 0.00 52 1017.1
20260510170029 61 342 1.0 4.0 0.00 0.13 0.00 55 1017.5
20260510163041 59 342 1.0 2.0 0.00 0.13 0.00 62 1017.4
20260510160034 59 342 3.0 5.0 0.00 0.13 0.00 59 1017.2
20260510153046 58 342 1.0 4.0 0.00 0.13 0.00 58 1017.5
20260510150039 59 342 3.0 6.0 0.00 0.13 0.00 56 1017.2
20260510143046 58 338 3.0 5.0 0.00 0.13 0.00 58 1016.8
20260510140040 57 338 0.0 4.0 0.00 0.13 0.00 66 1016.5
20260510133033 55 338 0.0 4.0 0.00 0.13 0.00 77 1015.7
20260510130047 51 338 1.0 4.0 0.00 0.13 0.00 93 1015.6
20260510123041 50 338 0.0 0.0 0.00 0.13 0.00 100 1015.4
20260510120032 50 338 0.0 0.0 0.00 0.13 0.00 100 1014.8
20260510113045 50 338 0.0 0.0 0.00 0.13 0.00 100 1014.3
20260510110040 50 338 0.0 0.0 0.00 0.13 0.00 99 1013.8
20260510103033 52 338 0.0 0.0 0.00 0.13 0.00 99 1013.3
20260510100041 53 338 0.0 3.0 0.00 0.13 0.00 100 1012.5
20260510093033 55 338 0.0 2.0 0.00 0.13 0.00 100 1012.4
20260510090045 55 338 0.0 0.0 0.00 0.13 0.00 100 1011.9
20260510083038 56 338 0.0 0.0 0.00 0.13 0.00 100 1011.7
20260510080029 57 338 0.0 0.0 0.00 0.13 0.00 100 1011.1
20260510073043 58 338 0.0 0.0 0.00 0.13 0.00 100 1010.7
20260510070036 58 338 0.0 0.0 0.00 0.13 0.00 100 1010.7
20260510063030 58 338 0.0 0.0 0.00 0.13 0.00 100 1010.7
20260510060041 59 338 0.0 0.0 0.00 0.13 0.00 100 1010.5
20260510053034 60 338 0.0 0.0 0.00 0.13 0.00 99 1010.3
20260510050042 60 338 0.0 0.0 0.01 0.13 0.13 99 1009.6
20260510043034 60 338 1.0 2.0 0.02 0.13 0.13 98 1009.0
20260510040027 61 338 0.0 0.0 0.10 0.12 0.12 97 1009.4
20260510033041 61 338 0.0 0.0 0.10 0.11 0.11 95 1008.5
20260510030034 62 340 1.0 4.0 0.02 0.05 0.02 91 1008.6
20260510023028 63 336 9.0 15.0 0.01 0.04 0.01 87 1008.4
20260510020041 66 351 6.0 22.0 0.00 0.25 0.00 71 1007.1
20260510013053 67 323 0.0 0.0 0.00 0.25 0.00 66 1005.1
20260510010041 70 323 0.0 0.0 0.00 0.46 0.00 63 1004.9
20260510003033 73 323 0.0 0.0 0.00 0.46 0.00 52 1004.9
20260510000026 80 323 0.0 0.0 0.00 0.47 0.00 46 1004.8
20260509233041 83 323 0.0 3.0 0.00 0.47 0.00 30 1004.9
20260509230035 83 292 0.0 9.0 0.00 0.53 0.00 28 1004.8
20260509223028 83 300 1.0 6.0 0.00 0.53 0.00 29 1004.7
20260509220043 83 360 5.0 10.0 0.00 0.54 0.00 28 1004.8
20260509213035 83 340 1.0 6.0 0.00 0.54 0.00 31 1004.8
20260509210145 82 326 5.0 7.0 0.00 0.54 0.00 31 1004.9
20260509203044 81 327 4.0 9.0 0.00 0.54 0.00 32 1005.2